Location: Chakepay
(13.3931°S, 72.1925°W)
Time: 04:23:55
(UTC+00:00)

Cosmos 1842 Rocket - Pass Details

Date: 15 November 2019
Orbit: 604 x 635 km, 82.5° (Epoch: 13 December)

Event Time Altitude Azimuth Distance (km) Brightness Sun altitude
Rises 09:31:38 0° 353° (N) 2,847 6.7 -9.9°
Reaches altitude 10° 09:33:50 10° 352° (N) 1,946 5.8 -9.4°
Maximum altitude 09:38:08 76° 266° (W) 627 3.5 -8.4°
Drops below altitude 10° 09:42:28 10° 180° (S) 1,962 6.4 -7.5°
Sets 09:44:41 0° 178° (S) 2,871 7.3 -6.9°
